EW4214 Weather Reports


Display with metric or nautical units.
time (UTC)temp
F
wind
direction
speed
MPH
gust
MPH
rain 1hr
in
rain 24hr
in
rain mn
in
humidity
%
barometer
mb
20260905131401 90 106 0.0 5.0 0.00 0.00 0.00 66 1008.0
20260905130401 90 126 0.0 3.0 0.00 0.00 0.00 66 1008.2
20260905125400 90 135 0.0 2.0 0.00 0.00 0.00 65 1008.3
20260905124400 90 47 1.0 5.0 0.00 0.00 0.00 65 1008.2
20260905123400 90 105 2.0 4.0 0.00 0.00 0.00 63 1008.0
20260905122359 91 260 2.0 9.0 0.00 0.00 0.00 62 1007.8
20260905121359 91 276 2.0 6.0 0.00 0.00 0.00 62 1007.7
20260905120358 91 209 2.0 10.0 0.00 0.00 0.00 62 1007.2
20260905115358 91 10 0.0 10.0 0.00 0.00 0.00 62 1006.8
20260905115318 91 222 2.0 9.0 0.00 0.00 0.00 61 1006.5
20260905113357 91 278 4.0 6.0 0.00 0.00 0.00 61 1006.4
20260905112356 91 259 0.0 4.0 0.00 0.00 0.00 60 1006.3
20260905112230 91 172 0.0 4.0 0.00 0.00 0.00 58 1005.9
20260905112222 91 232 1.0 2.0 0.00 0.00 0.00 59 1005.8
20260905105355 91 251 3.0 3.0 0.00 0.00 0.00 58 1005.5
20260905104354 91 316 0.0 4.0 0.00 0.00 0.00 57 1005.1
20260905103354 91 314 1.0 5.0 0.00 0.00 0.00 57 1005.1
20260905102354 91 248 3.0 5.0 0.00 0.00 0.00 58 1005.0
20260905101353 92 243 1.0 5.0 0.00 0.00 0.00 57 1004.9
20260905100352 92 234 3.0 5.0 0.00 0.00 0.00 57 1005.1
20260905095352 92 230 2.0 7.0 0.00 0.00 0.00 57 1005.0
20260905094833 92 288 3.0 4.0 0.00 0.00 0.00 56 1005.0
20260905093351 92 255 1.0 4.0 0.00 0.00 0.00 56 1004.7
20260905092351 92 252 2.0 6.0 0.00 0.00 0.00 56 1004.8
20260905091350 92 353 2.0 5.0 0.00 0.00 0.00 57 1004.6
20260905090350 92 53 0.0 6.0 0.00 0.00 0.00 57 1004.7
20260905085349 92 319 2.0 5.0 0.00 0.00 0.00 57 1004.7
20260905085306 91 248 3.0 5.0 0.00 0.00 0.00 58 1005.0
20260905083349 91 21 0.0 6.0 0.00 0.00 0.00 58 1005.1
20260905082348 91 349 2.0 5.0 0.00 0.00 0.00 57 1005.3
20260905081347 91 236 7.0 8.0 0.00 0.00 0.00 57 1005.4
20260905080347 91 311 2.0 8.0 0.00 0.00 0.00 57 1005.5
20260905075347 91 318 2.0 9.0 0.00 0.00 0.00 57 1005.6
20260905074346 91 275 1.0 7.0 0.00 0.00 0.00 57 1005.8
20260905073345 91 286 3.0 6.0 0.00 0.00 0.00 57 1005.8
20260905072346 91 341 3.0 9.0 0.00 0.00 0.00 58 1006.0
20260905071345 91 230 4.0 9.0 0.00 0.00 0.00 59 1006.1
20260905070516 91 252 3.0 9.0 0.00 0.00 0.00 58 1006.3
20260905065513 91 321 2.0 8.0 0.00 0.00 0.00 58 1006.6
20260905064513 91 273 0.0 8.0 0.00 0.00 0.00 58 1006.7
20260905063509 91 259 6.0 7.0 0.00 0.00 0.00 58 1006.9
20260905062458 90 257 5.0 11.0 0.00 0.00 0.00 60 1007.1
20260905061454 90 255 2.0 6.0 0.00 0.00 0.00 60 1007.3
20260905060451 90 318 0.0 6.0 0.00 0.00 0.00 61 1007.5
20260905055450 90 278 2.0 8.0 0.00 0.00 0.00 61 1008.0
20260905054444 90 286 3.0 6.0 0.00 0.00 0.00 61 1008.2
20260905053441 90 253 3.0 6.0 0.00 0.00 0.00 61 1008.5
20260905052440 89 12 2.0 6.0 0.00 0.00 0.00 61 1008.6
20260905051432 89 343 2.0 7.0 0.00 0.00 0.00 62 1008.8
20260905050430 89 232 4.0 8.0 0.00 0.00 0.00 62 1008.9
20260905045425 89 235 7.0 8.0 0.00 0.00 0.00 62 1009.1
20260905044423 89 297 2.0 9.0 0.00 0.00 0.00 62 1009.3
20260905043420 89 250 2.0 7.0 0.00 0.00 0.00 63 1009.3
20260905042415 89 328 2.0 8.0 0.00 0.00 0.00 64 1009.5
20260905041412 89 320 0.0 5.0 0.00 0.00 0.00 64 1009.6
20260905040409 88 219 2.0 6.0 0.00 0.00 0.00 65 1009.7
20260905035403 88 322 2.0 7.0 0.00 0.00 0.00 66 1009.7
20260905034357 88 296 1.0 6.0 0.00 0.00 0.00 65 1009.7
20260905033359 88 311 0.0 7.0 0.00 0.00 0.00 65 1009.7
20260905032355 88 322 3.0 7.0 0.00 0.00 0.00 66 1010.0
20260905031355 88 277 1.0 9.0 0.00 0.00 0.00 66 1009.8
20260905030350 88 220 2.0 5.0 0.00 0.00 0.00 66 1010.1
20260905025847 88 238 4.0 5.0 0.00 0.00 0.00 66 1010.1
20260905024344 88 207 1.0 6.0 0.00 0.00 0.00 66 1010.1
20260905023339 88 271 0.0 6.0 0.00 0.00 0.00 66 1010.1
20260905022336 87 335 3.0 11.0 0.00 0.00 0.00 66 1010.2
20260905021333 87 311 0.0 6.0 0.00 0.00 0.00 67 1010.2
20260905020824 87 279 4.0 6.0 0.00 0.00 0.00 67 1010.2
20260905015329 87 297 3.0 6.0 0.00 0.00 0.00 68 1009.9
20260905014819 87 133 1.0 4.0 0.00 0.00 0.00 67 1010.0
20260905013329 87 244 2.0 7.0 0.00 0.00 0.00 66 1009.8
20260905012328 86 292 1.0 6.0 0.00 0.00 0.00 66 1009.9
20260905011327 87 248 2.0 5.0 0.00 0.00 0.00 67 1009.7
20260905010327 86 325 2.0 4.0 0.00 0.00 0.00 66 1009.6
20260905005327 86 25 3.0 5.0 0.00 0.00 0.00 66 1009.4
20260905004326 86 18 0.0 7.0 0.00 0.00 0.00 66 1009.2
20260905003326 86 197 2.0 5.0 0.00 0.00 0.00 66 1008.9
20260905002325 86 226 2.0 6.0 0.00 0.00 0.00 66 1008.9
20260905001810 87 242 4.0 6.0 0.00 0.00 0.00 65 1008.8
20260905000325 87 245 1.0 4.0 0.00 0.00 0.00 66 1008.6
20260904235808 87 253 1.0 6.0 0.00 0.00 0.00 66 1008.5
20260904234327 87 336 0.0 5.0 0.00 0.00 0.00 65 1008.4
20260904233323 87 226 1.0 5.0 0.00 0.00 0.00 65 1008.3
20260904232322 87 225 2.0 4.0 0.00 0.00 0.00 65 1008.0
20260904231322 87 170 1.0 5.0 0.00 0.00 0.00 65 1008.1
20260904230321 87 219 3.0 5.0 0.00 0.00 0.00 65 1008.0
20260904225321 87 224 0.0 3.0 0.00 0.00 0.00 65 1008.1
20260904224320 87 0 0.0 4.0 0.00 0.00 0.00 65 1007.9
20260904223321 87 51 0.0 3.0 0.00 0.00 0.00 65 1007.9
20260904222320 87 209 0.0 4.0 0.00 0.00 0.00 65 1007.9
20260904221319 87 226 2.0 2.0 0.00 0.00 0.00 65 1007.7
20260904220319 87 233 0.0 4.0 0.00 0.00 0.00 65 1007.6
20260904215318 87 239 2.0 4.0 0.00 0.00 0.00 64 1007.5
20260904214318 87 118 0.0 4.0 0.00 0.00 0.00 64 1007.4
20260904213317 87 242 2.0 4.0 0.00 0.00 0.00 64 1007.3
20260904212317 87 247 2.0 3.0 0.00 0.00 0.00 64 1007.2
20260904211805 87 214 0.0 4.0 0.00 0.00 0.00 64 1007.1
20260904210316 87 49 0.0 5.0 0.00 0.00 0.00 64 1007.1
20260904205316 87 197 1.0 5.0 0.00 0.00 0.00 64 1007.0
20260904204315 87 227 0.0 6.0 0.00 0.00 0.00 63 1007.0
20260904203313 87 246 1.0 4.0 0.00 0.00 0.00 63 1007.1
20260904202313 88 234 4.0 4.0 0.00 0.00 0.00 63 1007.2
20260904201312 88 239 1.0 4.0 0.00 0.00 0.00 63 1007.4
20260904200312 88 236 2.0 4.0 0.00 0.00 0.00 63 1007.3
20260904195312 88 278 0.0 4.0 0.00 0.00 0.00 64 1007.4
20260904194756 88 169 2.0 6.0 0.00 0.00 0.00 64 1007.6
20260904193315 88 181 3.0 4.0 0.00 0.00 0.00 64 1007.5
20260904192309 88 218 0.0 5.0 0.00 0.00 0.00 64 1007.6
20260904191309 88 126 0.0 4.0 0.00 0.00 0.00 64 1007.8
20260904190743 88 246 0.0 4.0 0.00 0.00 0.00 64 1007.9
20260904185308 88 268 1.0 5.0 0.00 0.00 0.00 64 1007.9
20260904184305 88 275 1.0 3.0 0.00 0.00 0.00 64 1008.0
20260904183306 89 218 2.0 3.0 0.00 0.00 0.00 64 1008.0
20260904182306 89 218 2.0 3.0 0.00 0.00 0.00 64 1008.0
20260904181306 89 162 1.0 2.0 0.00 0.00 0.00 64 1008.0
20260904180305 89 229 2.0 4.0 0.00 0.00 0.00 64 1008.1
20260904175306 89 252 3.0 5.0 0.00 0.00 0.00 64 1008.2
20260904174437 89 338 2.0 4.0 0.00 0.00 0.00 64 1008.2
20260904173953 89 296 0.0 4.0 0.00 0.00 0.00 63 1008.2
20260904172430 89 202 0.0 5.0 0.00 0.00 0.00 63 1008.2
20260904171427 89 269 1.0 6.0 0.00 0.00 0.00 63 1008.2
20260904170423 89 89 0.0 3.0 0.00 0.00 0.00 63 1008.4
20260904165419 89 20 0.0 3.0 0.00 0.00 0.00 63 1008.5
20260904164416 89 283 0.0 3.0 0.00 0.00 0.00 64 1008.6
20260904163418 89 232 0.0 4.0 0.00 0.00 0.00 64 1008.6
20260904162919 89 231 2.0 2.0 0.00 0.00 0.00 63 1008.8
20260904161407 89 188 0.0 4.0 0.00 0.00 0.00 63 1008.9
20260904160401 89 257 2.0 4.0 0.00 0.00 0.00 63 1008.9
20260904155401 89 233 0.0 4.0 0.00 0.00 0.00 63 1008.9
20260904154420 89 256 2.0 4.0 0.00 0.00 0.00 63 1009.0
20260904154358 89 263 0.0 4.0 0.00 0.00 0.00 63 1009.0
20260904152351 89 246 3.0 4.0 0.00 0.00 0.00 63 1009.0
20260904151347 89 83 0.0 4.0 0.00 0.00 0.00 64 1008.9
20260904150902 89 261 0.0 3.0 0.00 0.00 0.00 64 1009.1
20260904145343 89 208 0.0 5.0 0.00 0.00 0.00 64 1009.1
20260904144349 89 294 0.0 4.0 0.00 0.00 0.00 64 1009.0
20260904143348 90 229 0.0 3.0 0.00 0.00 0.00 64 1008.8
20260904142338 90 233 0.0 3.0 0.00 0.00 0.00 64 1008.9
20260904141856 90 171 1.0 3.0 0.00 0.00 0.00 64 1008.7
20260904141339 90 240 0.0 3.0 0.00 0.00 0.00 64 1008.8
20260904135356 90 225 0.0 2.0 0.00 0.00 0.00 64 1008.5
20260904135337 90 256 0.0 2.0 0.00 0.00 0.00 64 1008.5
20260904133329 90 307 0.0 2.0 0.00 0.00 0.00 63 1008.2
20260904132324 90 307 1.0 3.0 0.00 0.00 0.00 63 1008.1